Regional Weather Roundup
Issued by NWS

Home | Current Version | Previous Version | Text Only | Print | Product List | Glossary On
Versions: 1 2 3 4 5 6 7 8 9 10 11 12 13 14 15 16 17 18 19 20 21 22 23 24 25 26 27 28 29 30 31 32 33 34 35 36 37 38 39 40 41 42 43 44 45 46 47 48 49 50
396
ASUS45 KBOU 281307
RWRCO

WEATHER ROUNDUP FOR COLORADO
NATIONAL WEATHER SERVICE DENVER/BOULDER CO
700 AM MDT TUE MAR 28 2017

NOTE: "FAIR" INDICATES FEW OR NO CLOUDS BELOW 12000 FEET WITH NO
SIGNIFICANT WEATHER AND/OR OBSTRUCTIONS TO VISIBILITY.

COZ001>005-013-030-031-281400-
...NORTHWEST COLORADO...

CITY           SKY/WX    TMP DP  RH WIND       PRES   REMARKS
CRAIG          LGT SNOW  33  31  92 SW6       29.90R FOG     WCI  28
HAYDEN         CLOUDY    34  28  80 W6        29.88R WCI  29
MEEKER         LGT RAIN  37  34  89 W9        29.88R
MOUNT WERNER   NOT AVBL
STEAMBOAT SPGS CLOUDY    33  32  96 CALM      29.87R
WALDEN         NOT AVBL
$$

COZ006>008-011-281400-
...WEST CENTRAL VALLEYS...

CITY           SKY/WX    TMP DP  RH WIND       PRES   REMARKS
GRAND JUNCTION CLOUDY    43  43 100 CALM      29.87R
MONTROSE       CLOUDY    39  38  96 CALM      29.88S
EAGLE          CLOUDY    34  32  93 CALM      29.89R
RIFLE          CLOUDY    42  39  89 CALM      29.87R
DELTA          CLOUDY    43  41  94 CALM      29.87S
NUCLA          CLOUDY    37  36  93 CALM      29.89S
$$

COZ017>023-064>068-281400-
...SOUTHWEST COLORADO...

CITY           SKY/WX    TMP DP  RH WIND       PRES   REMARKS
DURANGO        FAIR      32  31  96 CALM      29.83F
CORTEZ         CLOUDY    38  36  92 CALM      29.84F
PAGOSA SPRINGS MOCLDY    34  34 100 CALM      29.87S
TELLURIDE      FOG       29  29 100 CALM      29.88S VSB 1/4
WOLF CREEK PAS CLOUDY    19  19 100 SW3       29.97R FOG
$$

COZ009-010-012-014-032>034-037-058>063-281400-
...CENTRAL COLORADO...

CITY           SKY/WX    TMP DP  RH WIND       PRES   REMARKS
ASPEN          LGT SNOW  33  32  96 CALM      29.86S FOG
BUENA VISTA    CLOUDY    32  28  86 CALM      29.86R
COPPER MTN     SNOW      27  21  80 MISG      29.93R VSB 1/2
BERTHOUD PASS  HAZE      19   9  63 SE12      29.94R VSB 1/4 WCI   7
COTTONWOOD PAS CLOUDY    34  32  93 CALM      29.89R
GUNNISON       LGT SNOW  33  32  96 S3        29.88R FOG
KREMMLING      LGT SNOW  37  36  93 CALM      29.88R
LEADVILLE      CLOUDY    29  27  92 CALM      29.88R
MONARCH PASS   FOG       23  21  93 SW14      30.02R VSB 1/2 WCI  11
SALIDA         CLOUDY    40  34  78 CALM      29.92S
SUNLIGHT       LGT SNOW  25  23  93 CALM      29.95R
WILKERSON PASS FAIR      27  25  93 SW8       29.94S WCI  18
$$

COZ069>075-281400-
...SAN LUIS VALLEY/SANGRE DE CRISTO MOUNTAINS...

CITY           SKY/WX    TMP DP  RH WIND       PRES   REMARKS
ALAMOSA        FAIR      30  28  92 NW5       29.85S WCI  25
LA VETA PASS   NOT AVBL
SAGUACHE       CLOUDY    36  32  87 CALM      29.87S
$$

COZ035-036-038>040-281400-
...NORTHERN COLORADO FRONT RANGE...

CITY           SKY/WX    TMP DP  RH WIND       PRES   REMARKS
DENVER INTL AP CLOUDY    44  40  85 W9        29.83R
DMNS CITY PARK   N/A     45  40  82 N9        29.85R
AURORA         CLOUDY    43  42  99 NW6       29.85R
FRONT RANGE AP CLOUDY    45  43  93 NW5       29.84R
ERIE MUNI ARPT RAIN      44  42  93 N13       29.84S
BOULDER MUN AP DRIZZLE   43  43 100 N9        29.84R
CENTENNIAL     CLOUDY    43  39  86 N9        29.84R
BROOMFIELD     LGT RAIN  43  41  93 N17       29.84R
FORT COLLINS   LGT RAIN  44  39  82 N15       29.85R
LONGMONT       RAIN      46  41  85 N10G16    29.87R
$$

COZ041-046-047-076>085-087-088-281400-
...PIKES PEAK/PALMER DIVIDE AND SOUTHERN FOOTHILLS...

CITY           SKY/WX    TMP DP  RH WIND       PRES   REMARKS
COLO. SPRINGS  FAIR      36  32  85 NE10      29.84S
A. F. ACADEMY  MOCLDY    40  35  81 N5        29.84R
SCHRIEVER AFB  FAIR      35  33  94 N12       29.85R WCI  26
ELLICOTT       NOT AVBL
FALCON         CLOUDY    36  35  97 N6        29.86R
FORT CARSON    FAIR      36  33  88 N6        29.83R
LIMON          CLOUDY    40  40 100 SE14      29.85R
MONUMENT HILL  CLOUDY    34  32  93 W3        29.87R
TRINIDAD       CLOUDY    47  37  68 CALM      29.80R
$$

COZ042>045-048>051-090-091-281400-
...NORTHEAST COLORADO...

CITY           SKY/WX    TMP DP  RH WIND       PRES   REMARKS
GREELEY ARPT   CLOUDY    44  41  89 N13       29.83R
AKRON          RAIN      44  41  89 SE13      29.86R FOG
BURLINGTON     CLOUDY    45  43  93 SE22G28   29.87R
WRAY           DRIZZLE   45  45 100 SE10      29.89S
STERLING       DRIZZLE   45  43  93 SE9       29.85S
HOLYOKE        LGT RAIN  46  43  87 E14       29.91R
FORT MORGAN    CLOUDY    44  38  77 SE12      29.84S
$$

COZ086-089-092>099-281400-
...SOUTHEAST COLORADO...

CITY           SKY/WX    TMP DP  RH WIND       PRES   REMARKS
PUEBLO         FAIR      40  36  86 N9        29.80R
LA JUNTA       FAIR      47  39  74 E8        29.78R
LAMAR          LGT RAIN  47  42  83 SE25G33   29.79F
SPRINGFIELD      N/A     44  42  93 SE15      29.85R
$$




USA.gov is the U.S. government's official web portal to all federal, state and local government web resources and services.